Hourly Data Report for October 05, 2017

All times are specified in Local Standard Time (LST). Add 1 hour to adjust for Daylight Saving Time where and when it is observed.

LONDON CS
ONTARIO

43°02'00.000" N
81°09'00.000" W
278.00 m
6144478
71622
WSN

Download Data

Hourly Data (October 2017)
Hourly Data Report for October 5, 2017
Temp Definition
°C
Dew Point Temp Definition
°C
Rel Hum Definition
%
Wind Dir Definition
10's deg

Wind Spd Definition
km/h
Visibility Definition
km
Stn Press Definition
kPa
Hmdx Definition


Wind Chill Definition


Weather Definition


TIME
00:00 14.1 12.3 89 LegendMM LegendMM   98.93     LegendNANA
01:00 13.3 12.6 96 LegendMM LegendMM   98.93     LegendNANA
02:00 11.7 10.8 95 LegendMM LegendMM   98.91     LegendNANA
03:00 10.8 10.4 98 LegendMM LegendMM   98.91     LegendNANA
04:00 10.7 10.3 97 LegendMM LegendMM   98.94     LegendNANA
05:00 10.4 9.6 94 LegendMM LegendMM   98.91     LegendNANA
06:00 9.1 8.8 98 LegendMM LegendMM   98.91     LegendNANA
07:00 9.5 9.0 97 LegendMM LegendMM   98.90     LegendNANA
08:00 14.0 11.8 87 LegendMM LegendMM   98.90     LegendNANA
09:00 16.1 12.0 76 LegendMM LegendMM   98.92     LegendNANA
10:00 17.3 11.2 67 LegendMM LegendMM   98.91     LegendNANA
11:00 18.5 7.9 50 LegendMM LegendMM   98.85     LegendNANA
12:00 19.6 7.7 46 LegendMM LegendMM   98.80     LegendNANA
13:00 21.0 7.8 43 LegendMM LegendMM   98.71     LegendNANA
14:00 21.9 6.0 36 LegendMM LegendMM   98.66     LegendNANA
15:00 22.6 5.2 32 LegendMM LegendMM   98.61     LegendNANA
16:00 22.0 4.3 31 LegendMM LegendMM   98.56     LegendNANA
17:00 20.9 4.7 35 LegendMM LegendMM   98.55     LegendNANA
18:00 19.4 6.1 42 LegendMM LegendMM   98.57     LegendNANA
19:00 18.3 7.5 49 LegendMM LegendMM   98.57     LegendNANA
20:00 18.2 7.8 50 LegendMM LegendMM   98.61     LegendNANA
21:00 16.5 8.9 60 LegendMM LegendMM   98.60     LegendNANA
22:00 16.0 9.4 65 LegendMM LegendMM   98.61     LegendNANA
23:00 15.5 9.8 69 LegendMM LegendMM   98.60     LegendNANA

Notes on Data Quality.

Legend

  • E = Estimated
  • M = Missing
  • NA = Not Available
  • ‡ = Partner data that is not subject to review by the National Climate Archives
Date modified: